Time,TemperatureF,DewpointF,PressureIn,WindDirection,WindDirectionDegrees,WindSpeedMPH,WindSpeedGustMPH,Humidity,HourlyPrecipIn,Conditions,Clouds,dailyrainin,SoftwareType,DateUTC
2013-02-01 00:03:00,-4.2,-18.2,30.33,NNW,338,6.9,6.9,50,0.00,RA,,0.00,WeatherDisplay:10.37,2013-02-01 06:03:00,
2013-02-01 00:08:00,-4.2,-18.2,30.33,West,270,8.1,8.1,50,0.00,RA,,0.00,WeatherDisplay:10.37,2013-02-01 06:08:00,
2013-02-01 00:13:00,-4.4,-18.3,30.33,WNW,292,1.6,1.7,50,0.00,CLR,,0.00,WeatherDisplay:10.37,2013-02-01 06:13:00,
2013-02-01 00:18:00,-4.4,-18.7,30.33,NNW,338,2.3,2.6,49,0.00,CLR,,0.00,WeatherDisplay:10.37,2013-02-01 06:18:00,
2013-02-01 00:23:00,-4.4,-18.7,30.33,NNW,338,2.7,2.9,49,0.00,CLR,,0.00,WeatherDisplay:10.37,2013-02-01 06:23:00,
2013-02-01 00:28:00,-4.5,-18.5,30.33,NNW,338,4.6,4.9,50,0.00,CLR,,0.00,WeatherDisplay:10.37,2013-02-01 06:28:00,
2013-02-01 00:33:00,-4.7,-18.7,30.33,NNW,338,0.0,0.0,50,0.00,CLR,,0.00,WeatherDisplay:10.37,2013-02-01 06:33:00,
2013-02-01 00:38:00,-4.7,-18.7,30.33,West,270,1.1,1.1,50,0.00,CLR,,0.00,WeatherDisplay:10.37,2013-02-01 06:38:00,
2013-02-01 00:43:00,-4.7,-18.7,30.33,NW,315,5.8,6.1,50,0.00,CLR,,0.00,WeatherDisplay:10.37,2013-02-01 06:43:00,
2013-02-01 00:48:00,-4.9,-18.8,30.33,WNW,292,2.3,2.3,50,0.00,CLR,,0.00,WeatherDisplay:10.37,2013-02-01 06:48:00,
2013-02-01 00:53:00,-4.9,-18.8,30.33,NW,315,4.6,4.6,50,0.00,CLR,,0.00,WeatherDisplay:10.37,2013-02-01 06:53:00,
2013-02-01 00:58:00,-5.1,-19.0,30.33,West,270,7.3,7.8,50,0.00,CLR,,0.00,WeatherDisplay:10.37,2013-02-01 06:58:00,
2013-02-01 01:03:00,-5.1,-19.0,30.33,WNW,292,7.0,7.0,50,0.00,CLR,,0.00,WeatherDisplay:10.37,2013-02-01 07:03:00,
2013-02-01 01:08:00,-5.1,-19.0,30.33,WNW,292,6.9,6.9,50,0.00,CLR,,0.00,WeatherDisplay:10.37,2013-02-01 07:08:00,
2013-02-01 01:13:00,-5.3,-19.2,30.33,NW,315,5.8,5.8,50,0.00,CLR,,0.00,WeatherDisplay:10.37,2013-02-01 07:13:00,
2013-02-01 01:18:00,-5.3,-19.2,30.33,NNW,338,7.0,7.0,50,0.00,CLR,,0.00,WeatherDisplay:10.37,2013-02-01 07:18:00,
2013-02-01 01:23:00,-5.3,-19.2,30.33,NW,315,0.0,0.0,50,0.00,CLR,,0.00,WeatherDisplay:10.37,2013-02-01 07:23:00,
2013-02-01 01:28:00,-5.4,-19.3,30.33,NNW,338,1.1,1.4,50,0.00,CLR,,0.00,WeatherDisplay:10.37,2013-02-01 07:28:00,
2013-02-01 01:33:00,-5.6,-19.5,30.33,WNW,292,3.5,3.5,50,0.00,CLR,,0.00,WeatherDisplay:10.37,2013-02-01 07:33:00,
2013-02-01 01:38:00,-5.6,-19.5,30.33,NW,315,0.0,0.0,50,0.00,CLR,,0.00,WeatherDisplay:10.37,2013-02-01 07:38:00,
2013-02-01 01:43:00,-5.6,-19.5,30.33,WNW,292,0.0,0.0,50,0.00,CLR,,0.00,WeatherDisplay:10.37,2013-02-01 07:43:00,
2013-02-01 01:48:00,-5.6,-19.5,30.33,West,270,6.9,7.7,50,0.00,CLR,,0.00,WeatherDisplay:10.37,2013-02-01 07:48:00,
2013-02-01 01:53:00,-6.0,-19.8,30.32,WNW,292,6.9,6.9,50,0.00,CLR,,0.00,WeatherDisplay:10.37,2013-02-01 07:53:00,
2013-02-01 01:58:00,-5.6,-19.5,30.33,WNW,292,5.8,5.8,50,0.00,CLR,,0.00,WeatherDisplay:10.37,2013-02-01 07:58:00,
2013-02-01 02:03:00,-6.0,-19.5,30.32,WNW,292,8.1,8.1,51,0.00,CLR,,0.00,WeatherDisplay:10.37,2013-02-01 08:03:00,
2013-02-01 02:08:00,-6.0,-19.5,30.32,West,270,2.3,0.0,51,0.00,CLR,,0.00,WeatherDisplay:10.37,2013-02-01 08:08:00,
2013-02-01 02:13:00,-6.2,-19.6,30.33,NW,315,2.4,2.6,51,0.00,CLR,,0.00,WeatherDisplay:10.37,2013-02-01 08:13:00,
2013-02-01 02:18:00,-6.2,-19.6,30.33,WNW,292,0.0,0.0,51,0.00,CLR,,0.00,WeatherDisplay:10.37,2013-02-01 08:18:00,
2013-02-01 02:23:00,-6.2,-19.6,30.33,West,270,8.1,8.1,51,0.00,CLR,,0.00,WeatherDisplay:10.37,2013-02-01 08:23:00,
2013-02-01 02:28:00,-6.2,-19.6,30.33,WNW,292,0.0,0.0,51,0.00,CLR,,0.00,WeatherDisplay:10.37,2013-02-01 08:28:00,
2013-02-01 02:33:00,-6.2,-19.6,30.33,West,270,0.0,0.0,51,0.00,CLR,,0.00,WeatherDisplay:10.37,2013-02-01 08:33:00,
2013-02-01 02:38:00,-6.2,-19.6,30.33,NW,315,0.0,0.0,51,0.00,CLR,,0.00,WeatherDisplay:10.37,2013-02-01 08:38:00,
2013-02-01 02:43:00,-6.3,-19.4,30.33,WNW,292,3.5,3.5,52,0.00,CLR,,0.00,WeatherDisplay:10.37,2013-02-01 08:43:00,
2013-02-01 02:48:00,-6.3,-19.4,30.33,WNW,292,4.6,4.6,52,0.00,CLR,,0.00,WeatherDisplay:10.37,2013-02-01 08:48:00,
2013-02-01 02:53:00,-6.3,-19.4,30.33,West,270,5.8,6.7,52,0.00,CLR,,0.00,WeatherDisplay:10.37,2013-02-01 08:53:00,
2013-02-01 02:58:00,-6.5,-19.6,30.33,WNW,292,6.8,6.8,52,0.00,CLR,,0.00,WeatherDisplay:10.37,2013-02-01 08:58:00,
2013-02-01 03:03:00,-6.5,-19.6,30.33,NW,315,4.6,4.6,52,0.00,CLR,,0.00,WeatherDisplay:10.37,2013-02-01 09:03:00,
2013-02-01 03:08:00,-6.7,-19.8,30.34,West,270,0.0,0.6,52,0.00,CLR,,0.00,WeatherDisplay:10.37,2013-02-01 09:08:00,
2013-02-01 03:13:00,-6.9,-19.9,30.34,West,270,4.6,5.6,52,0.00,CLR,,0.00,WeatherDisplay:10.37,2013-02-01 09:13:00,
2013-02-01 03:18:00,-6.9,-19.9,30.34,West,270,4.6,4.6,52,0.00,CLR,,0.00,WeatherDisplay:10.37,2013-02-01 09:18:00,
2013-02-01 03:23:00,-7.1,-20.1,30.34,West,270,0.0,0.0,52,0.00,CLR,,0.00,WeatherDisplay:10.37,2013-02-01 09:23:00,
2013-02-01 03:28:00,-7.2,-20.3,30.34,WSW,248,6.9,6.9,52,0.00,CLR,,0.00,WeatherDisplay:10.37,2013-02-01 09:28:00,
2013-02-01 03:33:00,-7.4,-20.4,30.34,West,270,4.6,5.0,52,0.00,CLR,,0.00,WeatherDisplay:10.37,2013-02-01 09:33:00,
2013-02-01 03:38:00,-7.4,-20.4,30.34,West,270,6.9,7.2,52,0.00,CLR,,0.00,WeatherDisplay:10.37,2013-02-01 09:38:00,
2013-02-01 03:43:00,-7.4,-20.1,30.34,West,270,5.8,6.2,53,0.00,CLR,,0.00,WeatherDisplay:10.37,2013-02-01 09:43:00,
2013-02-01 03:48:00,-7.4,-20.1,30.35,WSW,248,4.6,4.6,53,0.00,CLR,,0.00,WeatherDisplay:10.37,2013-02-01 09:48:00,
2013-02-01 03:53:00,-7.4,-20.1,30.35,WSW,248,8.1,8.4,53,0.00,CLR,,0.00,WeatherDisplay:10.37,2013-02-01 09:53:00,
2013-02-01 03:58:00,-7.8,-20.4,30.34,WSW,248,6.9,6.9,53,0.00,CLR,,0.00,WeatherDisplay:10.37,2013-02-01 09:58:00,
2013-02-01 04:03:00,-7.4,-20.1,30.35,West,270,3.8,4.1,53,0.00,CLR,,0.00,WeatherDisplay:10.37,2013-02-01 10:03:00,
2013-02-01 04:08:00,-7.4,-20.1,30.34,West,270,4.6,5.5,53,0.00,CLR,,0.00,WeatherDisplay:10.37,2013-02-01 10:08:00,
2013-02-01 04:13:00,-8.0,-20.6,30.34,West,270,4.6,4.6,53,0.00,CLR,,0.00,WeatherDisplay:10.37,2013-02-01 10:13:00,
2013-02-01 04:18:00,-8.0,-20.6,30.34,West,270,5.8,6.1,53,0.00,CLR,,0.00,WeatherDisplay:10.37,2013-02-01 10:18:00,
2013-02-01 04:23:00,-8.0,-20.6,30.33,West,270,6.9,6.9,53,0.00,CLR,,0.00,WeatherDisplay:10.37,2013-02-01 10:23:00,
2013-02-01 04:28:00,-8.0,-20.2,30.33,West,270,5.8,5.8,54,0.00,CLR,,0.00,WeatherDisplay:10.37,2013-02-01 10:28:00,
2013-02-01 04:33:00,-8.0,-20.2,30.33,West,270,0.0,0.0,54,0.00,CLR,,0.00,WeatherDisplay:10.37,2013-02-01 10:33:00,
2013-02-01 04:38:00,-8.0,-20.2,30.33,WSW,248,7.3,7.8,54,0.00,CLR,,0.00,WeatherDisplay:10.37,2013-02-01 10:38:00,
2013-02-01 04:43:00,-8.0,-20.2,30.33,WSW,248,4.6,4.6,54,0.00,CLR,,0.00,WeatherDisplay:10.37,2013-02-01 10:43:00,
2013-02-01 04:48:00,-8.0,-20.2,30.33,West,270,0.0,0.0,54,0.00,CLR,,0.00,WeatherDisplay:10.37,2013-02-01 10:48:00,
2013-02-01 04:53:00,-8.1,-20.4,30.32,West,270,0.0,0.0,54,0.00,CLR,,0.00,WeatherDisplay:10.37,2013-02-01 10:53:00,
2013-02-01 04:58:00,-8.3,-20.5,30.32,West,270,0.0,0.0,54,0.00,CLR,,0.00,WeatherDisplay:10.37,2013-02-01 10:58:00,
2013-02-01 05:03:00,-8.5,-20.7,30.32,West,270,0.0,0.0,54,0.00,CLR,,0.00,WeatherDisplay:10.37,2013-02-01 11:03:00,
2013-02-01 05:08:00,-8.5,-20.7,30.32,West,270,0.0,0.0,54,0.00,CLR,,0.00,WeatherDisplay:10.37,2013-02-01 11:08:00,
2013-02-01 05:13:00,-8.7,-20.9,30.32,West,270,0.0,0.0,54,0.00,CLR,,0.00,WeatherDisplay:10.37,2013-02-01 11:13:00,
2013-02-01 05:18:00,-8.7,-20.9,30.32,West,270,0.0,0.0,54,0.00,CLR,,0.00,WeatherDisplay:10.37,2013-02-01 11:18:00,
2013-02-01 05:23:00,-8.7,-20.9,30.32,West,270,0.0,0.0,54,0.00,CLR,,0.00,WeatherDisplay:10.37,2013-02-01 11:23:00,
2013-02-01 05:28:00,-8.7,-20.9,30.32,WSW,248,2.4,2.5,54,0.00,CLR,,0.00,WeatherDisplay:10.37,2013-02-01 11:28:00,
2013-02-01 05:33:00,-8.7,-20.9,30.32,WSW,248,2.4,2.6,54,0.00,CLR,,0.00,WeatherDisplay:10.37,2013-02-01 11:33:00,
2013-02-01 05:38:00,-8.7,-20.9,30.32,WSW,248,2.3,2.3,54,0.00,CLR,,0.00,WeatherDisplay:10.37,2013-02-01 11:38:00,
2013-02-01 05:43:00,-8.7,-20.9,30.32,West,270,0.0,0.0,54,0.00,CLR,,0.00,WeatherDisplay:10.37,2013-02-01 11:43:00,
2013-02-01 05:48:00,-8.9,-21.1,30.32,West,270,0.0,0.0,54,0.00,CLR,,0.00,WeatherDisplay:10.37,2013-02-01 11:48:00,
2013-02-01 05:53:00,-8.9,-21.1,30.32,West,270,0.0,0.0,54,0.00,CLR,,0.00,WeatherDisplay:10.37,2013-02-01 11:53:00,
2013-02-01 05:58:00,-8.9,-21.1,30.32,West,270,0.0,0.0,54,0.00,CLR,,0.00,WeatherDisplay:10.37,2013-02-01 11:58:00,
2013-02-01 06:03:00,-8.9,-21.1,30.31,West,270,0.0,0.0,54,0.00,CLR,,0.00,WeatherDisplay:10.37,2013-02-01 12:03:00,
2013-02-01 06:08:00,-9.0,-21.2,30.31,West,270,0.0,0.0,54,0.00,CLR,,0.00,WeatherDisplay:10.37,2013-02-01 12:08:00,
2013-02-01 06:13:00,-9.0,-21.2,30.31,West,270,0.0,0.0,54,0.00,CLR,,0.00,WeatherDisplay:10.37,2013-02-01 12:13:00,
2013-02-01 06:18:00,-8.9,-21.1,30.31,West,270,0.0,0.0,54,0.00,CLR,,0.00,WeatherDisplay:10.37,2013-02-01 12:18:00,
2013-02-01 06:23:00,-8.9,-21.1,30.30,West,270,0.0,0.0,54,0.00,CLR,,0.00,WeatherDisplay:10.37,2013-02-01 12:23:00,
2013-02-01 06:28:00,-8.9,-21.1,30.30,West,270,0.0,0.0,54,0.00,CLR,,0.00,WeatherDisplay:10.37,2013-02-01 12:28:00,
2013-02-01 06:33:00,-8.7,-20.9,30.31,West,270,0.0,0.0,54,0.00,CLR,,0.00,WeatherDisplay:10.37,2013-02-01 12:33:00,
2013-02-01 06:38:00,-8.7,-20.9,30.30,West,270,0.0,0.0,54,0.00,CLR,,0.00,WeatherDisplay:10.37,2013-02-01 12:38:00,
2013-02-01 06:43:00,-8.7,-20.9,30.30,West,270,0.0,0.0,54,0.00,CLR,,0.00,WeatherDisplay:10.37,2013-02-01 12:43:00,
2013-02-01 06:48:00,-8.9,-21.1,30.30,West,270,0.0,0.0,54,0.00,CLR,,0.00,WeatherDisplay:10.37,2013-02-01 12:48:00,
2013-02-01 06:53:00,-9.0,-21.2,30.31,West,270,0.0,0.0,54,0.00,CLR,,0.00,WeatherDisplay:10.37,2013-02-01 12:53:00,
2013-02-01 06:58:00,-9.0,-21.2,30.31,West,270,0.0,0.0,54,0.00,CLR,,0.00,WeatherDisplay:10.37,2013-02-01 12:58:00,
2013-02-01 07:03:00,-9.2,-21.4,30.32,West,270,0.0,0.0,54,0.00,CLR,,0.00,WeatherDisplay:10.37,2013-02-01 13:03:00,
2013-02-01 07:08:00,-9.2,-21.4,30.31,WSW,248,0.0,0.0,54,0.00,CLR,,0.00,WeatherDisplay:10.37,2013-02-01 13:08:00,
2013-02-01 07:13:00,-9.2,-21.4,30.32,WSW,248,4.6,4.6,54,0.00,CLR,,0.00,WeatherDisplay:10.37,2013-02-01 13:13:00,
2013-02-01 07:18:00,-9.0,-21.2,30.32,WSW,248,5.1,5.5,54,0.00,CLR,,0.00,WeatherDisplay:10.37,2013-02-01 13:18:00,
2013-02-01 07:23:00,-8.7,-20.5,30.32,WSW,248,6.9,6.9,55,0.00,CLR,,0.00,WeatherDisplay:10.37,2013-02-01 13:23:00,
2013-02-01 07:28:00,-8.7,-20.5,30.32,WSW,248,2.4,2.6,55,0.00,CLR,,0.00,WeatherDisplay:10.37,2013-02-01 13:28:00,
2013-02-01 07:33:00,-8.5,-20.4,30.32,WSW,248,2.3,2.3,55,0.00,CLR,,0.00,WeatherDisplay:10.37,2013-02-01 13:33:00,
2013-02-01 07:38:00,-7.2,-18.8,30.31,WSW,248,1.1,1.1,56,0.00,CLR,,0.00,WeatherDisplay:10.37,2013-02-01 13:38:00,
2013-02-01 07:43:00,-5.6,-17.0,30.32,WSW,248,4.6,4.6,57,0.00,CLR,,0.00,WeatherDisplay:10.37,2013-02-01 13:43:00,
2013-02-01 07:48:00,-3.3,-14.4,30.32,SW,225,5.9,6.4,58,0.00,CLR,,0.00,WeatherDisplay:10.37,2013-02-01 13:48:00,
2013-02-01 07:53:00,-1.8,-12.4,30.33,WSW,248,8.1,8.1,60,0.00,CLR,,0.00,WeatherDisplay:10.37,2013-02-01 13:53:00,
2013-02-01 07:58:00,-0.2,-10.5,30.33,WSW,248,8.1,8.7,61,0.00,CLR,,0.00,WeatherDisplay:10.37,2013-02-01 13:58:00,
2013-02-01 08:03:00,0.9,-9.5,30.33,WSW,248,6.9,7.5,61,0.00,CLR,,0.00,WeatherDisplay:10.37,2013-02-01 14:03:00,
2013-02-01 08:08:00,2.3,-8.8,30.32,WSW,248,5.8,5.8,59,0.00,CLR,,0.00,WeatherDisplay:10.37,2013-02-01 14:08:00,
2013-02-01 08:13:00,3.6,-7.6,30.32,WSW,248,8.1,8.4,59,0.00,CLR,,0.00,WeatherDisplay:10.37,2013-02-01 14:13:00,
2013-02-01 08:18:00,5.4,-6.2,30.33,WSW,248,5.8,6.5,58,0.00,CLR,,0.00,WeatherDisplay:10.37,2013-02-01 14:18:00,
2013-02-01 08:23:00,5.9,-6.5,30.33,WSW,248,6.9,6.9,56,0.00,CLR,,0.00,WeatherDisplay:10.37,2013-02-01 14:23:00,
2013-02-01 08:28:00,6.3,-6.9,30.32,WSW,248,4.6,4.6,54,0.00,CLR,,0.00,WeatherDisplay:10.37,2013-02-01 14:28:00,
2013-02-01 08:33:00,6.3,-8.4,30.32,WSW,248,6.9,7.1,50,0.00,CLR,,0.00,WeatherDisplay:10.37,2013-02-01 14:33:00,
2013-02-01 08:38:00,5.5,-10.4,30.32,WSW,248,8.1,8.1,47,0.00,CLR,,0.00,WeatherDisplay:10.37,2013-02-01 14:38:00,
2013-02-01 08:43:00,4.6,-12.5,30.31,WSW,248,0.0,0.0,44,0.00,CLR,,0.00,WeatherDisplay:10.37,2013-02-01 14:43:00,
2013-02-01 08:48:00,4.1,-14.9,30.31,WSW,248,0.0,0.0,40,0.00,CLR,,0.00,WeatherDisplay:10.37,2013-02-01 14:48:00,
2013-02-01 08:53:00,4.3,-14.8,30.31,WSW,248,0.0,0.0,40,0.00,CLR,,0.00,WeatherDisplay:10.37,2013-02-01 14:53:00,
2013-02-01 08:58:00,4.3,-15.3,30.33,WSW,248,7.3,7.8,39,0.00,CLR,,0.00,WeatherDisplay:10.37,2013-02-01 14:58:00,
2013-02-01 09:03:00,3.9,-16.6,30.32,WSW,248,6.9,6.9,37,0.00,CLR,,0.00,WeatherDisplay:10.37,2013-02-01 15:03:00,
2013-02-01 09:08:00,3.6,-18.6,30.33,WSW,248,6.9,6.9,34,0.00,CLR,,0.00,WeatherDisplay:10.37,2013-02-01 15:08:00,
2013-02-01 09:13:00,2.8,-19.8,30.32,WSW,248,6.9,7.2,33,0.00,CLR,,0.00,WeatherDisplay:10.37,2013-02-01 15:13:00,
2013-02-01 09:18:00,2.5,-19.0,30.32,SW,225,8.1,8.1,35,0.00,CLR,,0.00,WeatherDisplay:10.37,2013-02-01 15:18:00,
2013-02-01 09:23:00,2.3,-19.2,30.31,WSW,248,8.1,8.1,35,0.00,CLR,,0.00,WeatherDisplay:10.37,2013-02-01 15:23:00,
2013-02-01 09:28:00,2.7,-17.2,30.32,WSW,248,7.3,7.8,38,0.00,CLR,,0.00,WeatherDisplay:10.37,2013-02-01 15:28:00,
2013-02-01 09:33:00,2.8,-15.1,30.32,WSW,248,6.9,6.9,42,0.00,CLR,,0.00,WeatherDisplay:10.37,2013-02-01 15:33:00,
2013-02-01 09:38:00,3.0,-14.0,30.32,SW,225,8.1,8.1,44,0.00,CLR,,0.00,WeatherDisplay:10.37,2013-02-01 15:38:00,
2013-02-01 09:43:00,3.0,-14.0,30.32,WSW,248,6.9,7.2,44,0.00,CLR,,0.00,WeatherDisplay:10.37,2013-02-01 15:43:00,
2013-02-01 09:48:00,3.6,-13.1,30.31,WSW,248,6.9,6.9,45,0.00,CLR,,0.00,WeatherDisplay:10.37,2013-02-01 15:48:00,
2013-02-01 09:53:00,3.9,-12.3,30.31,WSW,248,6.9,7.2,46,0.00,CLR,,0.00,WeatherDisplay:10.37,2013-02-01 15:53:00,
2013-02-01 09:58:00,4.1,-12.1,30.31,SW,225,1.1,1.4,46,0.00,CLR,,0.00,WeatherDisplay:10.37,2013-02-01 15:58:00,
2013-02-01 10:03:00,4.5,-11.4,30.31,SW,225,5.8,5.8,47,0.00,CLR,,0.00,WeatherDisplay:10.37,2013-02-01 16:03:00,
2013-02-01 10:08:00,5.2,-10.7,30.31,SSW,202,3.5,3.5,47,0.00,CLR,,0.00,WeatherDisplay:10.37,2013-02-01 16:08:00,
2013-02-01 10:13:00,5.7,-10.2,30.30,SW,225,8.1,8.3,47,0.00,CLR,,0.00,WeatherDisplay:10.37,2013-02-01 16:13:00,
2013-02-01 10:18:00,5.9,-10.0,30.30,SW,225,7.3,7.3,47,0.00,CLR,,0.00,WeatherDisplay:10.37,2013-02-01 16:18:00,
2013-02-01 10:23:00,5.9,-10.5,30.30,SW,225,8.1,8.1,46,0.00,CLR,,0.00,WeatherDisplay:10.37,2013-02-01 16:23:00,
2013-02-01 10:28:00,5.7,-11.1,30.30,SW,225,3.5,3.5,45,0.00,CLR,,0.00,WeatherDisplay:10.37,2013-02-01 16:28:00,
2013-02-01 10:33:00,5.7,-11.5,30.30,SSW,202,6.9,7.0,44,0.00,CLR,,0.00,WeatherDisplay:10.37,2013-02-01 16:33:00,
2013-02-01 10:38:00,5.4,-12.8,30.30,SW,225,9.2,9.2,42,0.00,CLR,,0.00,WeatherDisplay:10.37,2013-02-01 16:38:00,
2013-02-01 10:43:00,5.5,-12.6,30.30,SSW,202,8.1,8.4,42,0.00,CLR,,0.00,WeatherDisplay:10.37,2013-02-01 16:43:00,
2013-02-01 10:48:00,5.9,-12.3,30.30,SW,225,7.3,7.8,42,0.00,CLR,,0.00,WeatherDisplay:10.37,2013-02-01 16:48:00,
2013-02-01 10:53:00,6.3,-11.0,30.30,SSW,202,3.5,3.8,44,0.00,CLR,,0.00,WeatherDisplay:10.37,2013-02-01 16:53:00,
2013-02-01 10:58:00,6.4,-10.4,30.30,South,180,8.1,8.1,45,0.00,CLR,,0.00,WeatherDisplay:10.37,2013-02-01 16:58:00,
2013-02-01 11:03:00,6.6,-10.3,30.28,SSE,158,6.9,6.9,45,0.00,CLR,,0.00,WeatherDisplay:10.37,2013-02-01 17:03:00,
2013-02-01 11:08:00,6.6,-10.7,30.28,SSW,202,6.9,6.9,44,0.00,CLR,,0.00,WeatherDisplay:10.37,2013-02-01 17:08:00,
2013-02-01 11:13:00,7.0,-10.4,30.28,WSW,248,8.1,8.1,44,0.00,CLR,,0.00,WeatherDisplay:10.37,2013-02-01 17:13:00,
2013-02-01 11:18:00,7.2,-9.8,30.28,SSW,202,8.1,8.1,45,0.00,CLR,,0.00,WeatherDisplay:10.37,2013-02-01 17:18:00,
2013-02-01 11:23:00,7.2,-9.8,30.28,SW,225,8.1,8.7,45,0.00,CLR,,0.00,WeatherDisplay:10.37,2013-02-01 17:23:00,
2013-02-01 11:28:00,7.2,-9.8,30.28,SSW,202,8.4,8.4,45,0.00,CLR,,0.00,WeatherDisplay:10.37,2013-02-01 17:28:00,
2013-02-01 11:33:00,7.0,-10.8,30.27,SSW,202,6.9,7.3,43,0.00,CLR,,0.00,WeatherDisplay:10.37,2013-02-01 17:33:00,
2013-02-01 11:38:00,6.8,-11.5,30.27,SW,225,6.9,6.9,42,0.00,CLR,,0.00,WeatherDisplay:10.37,2013-02-01 17:38:00,
2013-02-01 11:43:00,6.6,-10.7,30.27,South,180,8.1,8.1,44,0.00,CLR,,0.00,WeatherDisplay:10.37,2013-02-01 17:43:00,
2013-02-01 11:48:00,6.6,-10.7,30.26,South,180,9.2,9.5,44,0.00,CLR,,0.00,WeatherDisplay:10.37,2013-02-01 17:48:00,
2013-02-01 11:53:00,6.8,-10.1,30.26,SSE,158,8.1,8.1,45,0.00,CLR,,0.00,WeatherDisplay:10.37,2013-02-01 17:53:00,
2013-02-01 11:58:00,6.4,-10.4,30.26,SSW,202,9.7,9.7,45,0.00,CLR,,0.00,WeatherDisplay:10.37,2013-02-01 17:58:00,
2013-02-01 12:03:00,6.3,-11.0,30.25,SSW,202,9.5,10.1,44,0.00,CLR,,0.00,WeatherDisplay:10.37,2013-02-01 18:03:00,
2013-02-01 12:08:00,6.1,-11.2,30.25,South,180,8.1,8.7,44,0.00,CLR,,0.00,WeatherDisplay:10.37,2013-02-01 18:08:00,
2013-02-01 12:13:00,6.3,-10.6,30.25,South,180,10.4,10.4,45,0.00,CLR,,0.00,WeatherDisplay:10.37,2013-02-01 18:13:00,
2013-02-01 12:18:00,6.4,-9.5,30.25,South,180,9.2,9.3,47,0.00,CLR,,0.00,WeatherDisplay:10.37,2013-02-01 18:18:00,
2013-02-01 12:23:00,7.0,-8.2,30.25,South,180,8.1,8.4,49,0.00,CLR,,0.00,WeatherDisplay:10.37,2013-02-01 18:23:00,
2013-02-01 12:28:00,7.2,-8.0,30.23,South,180,9.2,9.5,49,0.00,CLR,,0.00,WeatherDisplay:10.37,2013-02-01 18:28:00,
2013-02-01 12:33:00,7.5,-7.3,30.21,SSW,202,8.1,8.7,50,0.00,CLR,,0.00,WeatherDisplay:10.37,2013-02-01 18:33:00,
2013-02-01 12:38:00,7.7,-7.1,30.21,South,180,11.5,11.9,50,0.00,CLR,,0.00,WeatherDisplay:10.37,2013-02-01 18:38:00,
2013-02-01 12:43:00,7.5,-7.3,30.20,South,180,10.4,11.0,50,0.00,CLR,,0.00,WeatherDisplay:10.37,2013-02-01 18:43:00,
2013-02-01 12:48:00,7.7,-7.1,30.20,SSW,202,10.5,11.3,50,0.00,CLR,,0.00,WeatherDisplay:10.37,2013-02-01 18:48:00,
2013-02-01 12:53:00,7.7,-6.7,30.19,South,180,13.8,14.5,51,0.00,CLR,,0.00,WeatherDisplay:10.37,2013-02-01 18:53:00,
2013-02-01 12:58:00,7.7,-6.7,30.19,South,180,12.7,12.7,51,0.00,CLR,,0.00,WeatherDisplay:10.37,2013-02-01 18:58:00,
2013-02-01 13:03:00,7.7,-6.7,30.19,SSE,158,11.9,12.7,51,0.00,CLR,,0.00,WeatherDisplay:10.37,2013-02-01 19:03:00,
2013-02-01 13:08:00,7.9,-6.1,30.19,South,180,11.4,11.4,52,0.00,CLR,,0.00,WeatherDisplay:10.37,2013-02-01 19:08:00,
2013-02-01 13:13:00,8.2,-5.8,30.19,SSE,158,9.7,9.8,52,0.00,CLR,,0.00,WeatherDisplay:10.37,2013-02-01 19:13:00,
2013-02-01 13:18:00,8.8,-4.9,30.18,South,180,11.5,11.9,53,0.00,CLR,,0.00,WeatherDisplay:10.37,2013-02-01 19:18:00,
2013-02-01 13:23:00,9.5,-3.8,30.18,South,180,13.0,13.0,54,0.00,CLR,,0.00,WeatherDisplay:10.37,2013-02-01 19:23:00,
2013-02-01 13:28:00,9.9,-3.5,30.18,South,180,11.5,11.5,54,0.00,CLR,,0.00,WeatherDisplay:10.37,2013-02-01 19:28:00,
2013-02-01 13:33:00,10.4,-3.0,30.18,SSE,158,9.2,9.8,54,0.00,CLR,,0.00,WeatherDisplay:10.37,2013-02-01 19:33:00,
2013-02-01 13:38:00,10.6,-2.8,30.18,SSW,202,9.2,9.5,54,0.00,CLR,,0.00,WeatherDisplay:10.37,2013-02-01 19:38:00,
2013-02-01 13:43:00,10.9,-2.5,30.18,South,180,9.7,10.3,54,0.00,CLR,,0.00,WeatherDisplay:10.37,2013-02-01 19:43:00,
2013-02-01 13:48:00,11.7,-1.8,30.18,SSW,202,10.8,11.6,54,0.00,CLR,,0.00,WeatherDisplay:10.37,2013-02-01 19:48:00,
2013-02-01 13:53:00,12.0,-1.1,30.18,South,180,8.1,8.7,55,0.00,CLR,,0.00,WeatherDisplay:10.37,2013-02-01 19:53:00,
2013-02-01 13:58:00,12.6,-1.0,30.17,South,180,10.4,10.4,54,0.00,CLR,,0.00,WeatherDisplay:10.37,2013-02-01 19:58:00,
2013-02-01 14:03:00,12.9,-0.6,30.17,SW,225,11.5,11.9,54,0.00,CLR,,0.00,WeatherDisplay:10.37,2013-02-01 20:03:00,
2013-02-01 14:08:00,13.3,0.1,30.17,SSW,202,9.2,9.4,55,0.00,CLR,,0.00,WeatherDisplay:10.37,2013-02-01 20:08:00,
2013-02-01 14:13:00,13.5,0.3,30.16,SSW,202,11.5,12.0,55,0.00,CLR,,0.00,WeatherDisplay:10.37,2013-02-01 20:13:00,
2013-02-01 14:18:00,13.3,-0.3,30.16,SSW,202,10.4,11.0,54,0.00,CLR,,0.00,WeatherDisplay:10.37,2013-02-01 20:18:00,
2013-02-01 14:23:00,13.3,-0.3,30.16,South,180,9.2,9.2,54,0.00,CLR,,0.00,WeatherDisplay:10.37,2013-02-01 20:23:00,
2013-02-01 14:28:00,13.5,-0.1,30.16,South,180,8.1,8.4,54,0.00,CLR,,0.00,WeatherDisplay:10.37,2013-02-01 20:28:00,
2013-02-01 14:33:00,13.5,0.3,30.16,SSW,202,9.2,9.5,55,0.00,CLR,,0.00,WeatherDisplay:10.37,2013-02-01 20:33:00,
2013-02-01 14:38:00,13.5,0.3,30.15,South,180,8.1,8.8,55,0.00,CLR,,0.00,WeatherDisplay:10.37,2013-02-01 20:38:00,
2013-02-01 14:43:00,13.5,0.3,30.15,SSW,202,9.2,10.2,55,0.00,CLR,,0.00,WeatherDisplay:10.37,2013-02-01 20:43:00,
2013-02-01 14:48:00,13.8,0.6,30.15,South,180,11.5,12.2,55,0.00,CLR,,0.00,WeatherDisplay:10.37,2013-02-01 20:48:00,
2013-02-01 14:53:00,13.8,1.0,30.15,SSW,202,10.4,10.4,56,0.00,CLR,,0.00,WeatherDisplay:10.37,2013-02-01 20:53:00,
2013-02-01 14:58:00,14.0,1.2,30.15,SSW,202,9.2,9.8,56,0.00,CLR,,0.00,WeatherDisplay:10.37,2013-02-01 20:58:00,
2013-02-01 15:03:00,14.2,1.3,30.15,SW,225,9.2,9.3,56,0.00,CLR,,0.00,WeatherDisplay:10.37,2013-02-01 21:03:00,
2013-02-01 15:08:00,14.4,1.5,30.14,SSW,202,9.5,9.6,56,0.00,CLR,,0.00,WeatherDisplay:10.37,2013-02-01 21:08:00,
2013-02-01 15:13:00,14.4,1.5,30.14,SW,225,11.6,12.4,56,0.00,CLR,,0.00,WeatherDisplay:10.37,2013-02-01 21:13:00,
2013-02-01 15:18:00,14.4,1.5,30.13,SSW,202,11.5,11.9,56,0.00,CLR,,0.00,WeatherDisplay:10.37,2013-02-01 21:18:00,
2013-02-01 15:23:00,14.4,1.5,30.13,South,180,8.1,8.5,56,0.00,CLR,,0.00,WeatherDisplay:10.37,2013-02-01 21:23:00,
2013-02-01 15:28:00,14.4,1.9,30.13,SSW,202,9.2,9.5,57,0.00,CLR,,0.00,WeatherDisplay:10.37,2013-02-01 21:28:00,
2013-02-01 15:33:00,14.5,2.1,30.13,SSW,202,10.4,11.2,57,0.00,CLR,,0.00,WeatherDisplay:10.37,2013-02-01 21:33:00,
2013-02-01 15:38:00,14.7,2.2,30.13,SSW,202,9.2,9.3,57,0.00,CLR,,0.00,WeatherDisplay:10.37,2013-02-01 21:38:00,
2013-02-01 15:43:00,14.7,2.6,30.13,SSW,202,10.4,10.7,58,0.00,CLR,,0.00,WeatherDisplay:10.37,2013-02-01 21:43:00,
2013-02-01 15:48:00,15.1,2.9,30.12,SSW,202,11.5,11.9,58,0.00,CLR,,0.00,WeatherDisplay:10.37,2013-02-01 21:48:00,
2013-02-01 15:53:00,15.1,2.9,30.11,SSW,202,12.7,12.7,58,0.00,CLR,,0.00,WeatherDisplay:10.37,2013-02-01 21:53:00,
2013-02-01 15:58:00,14.9,2.8,30.11,South,180,8.1,8.1,58,0.00,CLR,,0.00,WeatherDisplay:10.37,2013-02-01 21:58:00,
2013-02-01 16:03:00,15.1,3.3,30.10,SSW,202,9.2,10.4,59,0.00,CLR,,0.00,WeatherDisplay:10.37,2013-02-01 22:03:00,
2013-02-01 16:08:00,15.3,3.5,30.10,SSW,202,10.4,10.4,59,0.00,CLR,,0.00,WeatherDisplay:10.37,2013-02-01 22:08:00,
2013-02-01 16:13:00,15.3,3.5,30.10,SSW,202,13.0,13.9,59,0.00,CLR,,0.00,WeatherDisplay:10.37,2013-02-01 22:13:00,
2013-02-01 16:18:00,15.3,3.5,30.10,SSW,202,9.2,10.1,59,0.00,CLR,,0.00,WeatherDisplay:10.37,2013-02-01 22:18:00,
2013-02-01 16:23:00,15.4,4.0,30.10,SSW,202,9.2,9.4,60,0.00,CLR,,0.00,WeatherDisplay:10.37,2013-02-01 22:23:00,
2013-02-01 16:28:00,15.4,4.0,30.10,SSW,202,10.4,10.7,60,0.00,CLR,,0.00,WeatherDisplay:10.37,2013-02-01 22:28:00,
2013-02-01 16:33:00,15.4,4.0,30.09,SSW,202,8.1,8.1,60,0.00,CLR,,0.00,WeatherDisplay:10.37,2013-02-01 22:33:00,
2013-02-01 16:38:00,15.8,4.7,30.09,South,180,11.5,11.5,61,0.00,CLR,,0.00,WeatherDisplay:10.37,2013-02-01 22:38:00,
2013-02-01 16:43:00,16.0,4.9,30.09,SSW,202,8.4,9.0,61,0.00,CLR,,0.00,WeatherDisplay:10.37,2013-02-01 22:43:00,
2013-02-01 16:48:00,16.2,5.4,30.08,South,180,10.4,11.4,62,0.00,CLR,,0.00,WeatherDisplay:10.37,2013-02-01 22:48:00,
2013-02-01 16:53:00,16.3,5.6,30.08,SSW,202,9.2,9.2,62,0.00,CLR,,0.00,WeatherDisplay:10.37,2013-02-01 22:53:00,
2013-02-01 16:58:00,16.5,6.1,30.08,SW,225,8.1,8.4,63,0.00,CLR,,0.00,WeatherDisplay:10.37,2013-02-01 22:58:00,
2013-02-01 17:03:00,16.5,5.8,30.08,SW,225,10.4,11.1,62,0.00,CLR,,0.00,WeatherDisplay:10.37,2013-02-01 23:03:00,
2013-02-01 17:08:00,16.5,5.8,30.08,SSW,202,8.1,8.9,62,0.00,CLR,,0.00,WeatherDisplay:10.37,2013-02-01 23:08:00,
2013-02-01 17:13:00,16.5,5.8,30.08,SSW,202,10.4,11.0,62,0.00,CLR,,0.00,WeatherDisplay:10.37,2013-02-01 23:13:00,
2013-02-01 17:18:00,16.3,5.9,30.07,SW,225,11.5,11.9,63,0.00,CLR,,0.00,WeatherDisplay:10.37,2013-02-01 23:18:00,
2013-02-01 17:23:00,16.3,5.9,30.07,SW,225,12.7,13.3,63,0.00,CLR,,0.00,WeatherDisplay:10.37,2013-02-01 23:23:00,
2013-02-01 17:28:00,16.3,5.9,30.07,South,180,6.9,7.2,63,0.00,CLR,,0.00,WeatherDisplay:10.37,2013-02-01 23:28:00,
2013-02-01 17:33:00,16.3,5.9,30.07,SSW,202,11.5,12.2,63,0.00,CLR,,0.00,WeatherDisplay:10.37,2013-02-01 23:33:00,
2013-02-01 17:38:00,16.2,5.8,30.06,SW,225,12.7,13.0,63,0.00,CLR,,0.00,WeatherDisplay:10.37,2013-02-01 23:38:00,
2013-02-01 17:43:00,16.2,5.8,30.05,SSW,202,13.8,14.8,63,0.00,CLR,,0.00,WeatherDisplay:10.37,2013-02-01 23:43:00,
2013-02-01 17:48:00,16.0,5.9,30.04,SW,225,12.7,12.8,64,0.00,CLR,,0.00,WeatherDisplay:10.37,2013-02-01 23:48:00,
2013-02-01 17:53:00,16.0,5.9,30.04,SW,225,8.1,8.1,64,0.00,CLR,,0.00,WeatherDisplay:10.37,2013-02-01 23:53:00,
2013-02-01 17:58:00,16.0,5.9,30.04,South,180,10.4,11.3,64,0.00,CLR,,0.00,WeatherDisplay:10.37,2013-02-01 23:58:00,
2013-02-01 18:03:00,15.8,5.8,30.05,SSW,202,12.7,12.7,64,0.00,CLR,,0.00,WeatherDisplay:10.37,2013-02-02 00:03:00,
2013-02-01 18:08:00,15.6,5.6,30.05,SSW,202,10.8,11.6,64,0.00,CLR,,0.00,WeatherDisplay:10.37,2013-02-02 00:08:00,
2013-02-01 18:13:00,15.4,5.4,30.05,SSW,202,10.4,10.7,64,0.00,CLR,,0.00,WeatherDisplay:10.37,2013-02-02 00:13:00,
2013-02-01 18:18:00,15.4,5.4,30.04,SW,225,9.2,9.2,64,0.00,CLR,,0.00,WeatherDisplay:10.37,2013-02-02 00:18:00,
2013-02-01 18:23:00,15.3,5.3,30.04,SSW,202,10.4,10.7,64,0.00,CLR,,0.00,WeatherDisplay:10.37,2013-02-02 00:23:00,
2013-02-01 18:28:00,15.3,5.3,30.05,SW,225,12.7,13.3,64,0.00,CLR,,0.00,WeatherDisplay:10.37,2013-02-02 00:28:00,
2013-02-01 18:33:00,15.3,5.3,30.05,SSW,202,14.1,14.4,64,0.00,CLR,,0.00,WeatherDisplay:10.37,2013-02-02 00:33:00,
2013-02-01 18:38:00,15.3,5.3,30.05,SW,225,13.8,15.3,64,0.00,CLR,,0.00,WeatherDisplay:10.37,2013-02-02 00:38:00,
2013-02-01 18:43:00,15.3,5.6,30.05,SW,225,12.7,13.2,65,0.00,CLR,,0.00,WeatherDisplay:10.37,2013-02-02 00:43:00,
2013-02-01 18:48:00,15.3,5.6,30.05,SW,225,11.5,11.5,65,0.00,CLR,,0.00,WeatherDisplay:10.37,2013-02-02 00:48:00,
2013-02-01 18:53:00,15.4,5.8,30.05,SW,225,8.1,8.4,65,0.00,CLR,,0.00,WeatherDisplay:10.37,2013-02-02 00:53:00,
2013-02-01 18:58:00,15.6,6.3,30.05,SSW,202,8.1,8.7,66,0.00,CLR,,0.00,WeatherDisplay:10.37,2013-02-02 00:58:00,
2013-02-01 19:03:00,16.0,6.6,30.04,South,180,8.4,8.9,66,0.00,CLR,,0.00,WeatherDisplay:10.37,2013-02-02 01:03:00,
2013-02-01 19:08:00,16.0,6.6,30.04,SSW,202,7.3,7.8,66,0.00,CLR,,0.00,WeatherDisplay:10.37,2013-02-02 01:08:00,
2013-02-01 19:13:00,16.2,7.1,30.04,SSE,158,8.1,8.6,67,0.00,CLR,,0.00,WeatherDisplay:10.37,2013-02-02 01:13:00,
2013-02-01 19:18:00,16.2,7.1,30.04,SSW,202,9.2,9.2,67,0.00,CLR,,0.00,WeatherDisplay:10.37,2013-02-02 01:18:00,
2013-02-01 19:23:00,16.3,7.3,30.04,SSW,202,8.1,8.4,67,0.00,CLR,,0.00,WeatherDisplay:10.37,2013-02-02 01:23:00,
2013-02-01 19:28:00,16.5,7.8,30.04,SSW,202,8.7,8.7,68,0.00,CLR,,0.00,WeatherDisplay:10.37,2013-02-02 01:28:00,
2013-02-01 19:33:00,16.5,7.8,30.03,South,180,8.1,8.1,68,0.00,CLR,,0.00,WeatherDisplay:10.37,2013-02-02 01:33:00,
2013-02-01 19:38:00,16.7,8.0,30.02,SSW,202,8.1,8.1,68,0.00,CLR,,0.00,WeatherDisplay:10.37,2013-02-02 01:38:00,
2013-02-01 19:43:00,16.7,8.3,30.02,SSW,202,8.1,8.1,69,0.00,CLR,,0.00,WeatherDisplay:10.37,2013-02-02 01:43:00,
2013-02-01 19:48:00,16.7,8.3,30.01,SW,225,11.5,11.5,69,0.00,CLR,,0.00,WeatherDisplay:10.37,2013-02-02 01:48:00,
2013-02-01 19:53:00,16.9,8.5,30.00,WSW,248,11.5,12.2,69,0.00,CLR,,0.00,WeatherDisplay:10.37,2013-02-02 01:53:00,
2013-02-01 19:58:00,17.2,9.1,30.01,SSW,202,13.8,13.8,70,0.00,CLR,,0.00,WeatherDisplay:10.37,2013-02-02 01:58:00,
2013-02-01 20:03:00,17.2,9.1,30.01,SSW,202,9.5,10.1,70,0.00,CLR,,0.00,WeatherDisplay:10.37,2013-02-02 02:03:00,
2013-02-01 20:08:00,17.4,9.3,30.01,SW,225,9.2,10.1,70,0.00,CLR,,0.00,WeatherDisplay:10.37,2013-02-02 02:08:00,
2013-02-01 20:13:00,17.8,10.0,30.01,SW,225,8.1,8.1,71,0.00,CLR,,0.00,WeatherDisplay:10.37,2013-02-02 02:13:00,
2013-02-01 20:18:00,18.0,10.1,30.02,SSW,202,8.1,8.4,71,0.00,CLR,,0.00,WeatherDisplay:10.37,2013-02-02 02:18:00,
2013-02-01 20:23:00,18.0,10.1,30.02,WSW,248,7.0,7.5,71,0.00,CLR,,0.00,WeatherDisplay:10.37,2013-02-02 02:23:00,
2013-02-01 20:28:00,18.1,10.3,30.02,SW,225,10.4,10.4,71,0.00,CLR,,0.00,WeatherDisplay:10.37,2013-02-02 02:28:00,
2013-02-01 20:33:00,18.3,10.5,30.02,SSW,202,8.1,8.1,71,0.00,CLR,,0.00,WeatherDisplay:10.37,2013-02-02 02:33:00,
2013-02-01 20:38:00,18.5,10.7,30.01,SW,225,8.1,8.7,71,0.00,CLR,,0.00,WeatherDisplay:10.37,2013-02-02 02:38:00,
2013-02-01 20:43:00,18.9,11.0,30.01,SW,225,8.1,8.1,71,0.00,CLR,,0.00,WeatherDisplay:10.37,2013-02-02 02:43:00,
2013-02-01 20:48:00,18.9,11.0,30.00,SSW,202,11.5,11.9,71,0.00,CLR,,0.00,WeatherDisplay:10.37,2013-02-02 02:48:00,
2013-02-01 20:53:00,19.0,11.2,30.00,WSW,248,9.2,9.5,71,0.00,CLR,,0.00,WeatherDisplay:10.37,2013-02-02 02:53:00,
2013-02-01 20:58:00,19.2,11.7,30.01,SW,225,9.2,9.4,72,0.00,CLR,,0.00,WeatherDisplay:10.37,2013-02-02 02:58:00,
2013-02-01 21:03:00,19.6,12.0,30.01,SW,225,9.7,10.4,72,0.00,CLR,,0.00,WeatherDisplay:10.37,2013-02-02 03:03:00,
2013-02-01 21:08:00,19.8,12.2,30.01,SW,225,12.7,13.6,72,0.00,CLR,,0.00,WeatherDisplay:10.37,2013-02-02 03:08:00,
2013-02-01 21:13:00,19.8,12.2,30.01,SW,225,13.8,13.8,72,0.00,CLR,,0.00,WeatherDisplay:10.37,2013-02-02 03:13:00,
2013-02-01 21:19:00,20.1,12.5,30.01,SW,225,10.4,11.6,72,0.00,CLR,,0.00,WeatherDisplay:10.37,2013-02-02 03:19:00,
2013-02-01 21:24:00,20.3,12.7,30.01,SW,225,11.4,11.4,72,0.00,CLR,,0.00,WeatherDisplay:10.37,2013-02-02 03:24:00,
2013-02-01 21:29:00,20.7,13.1,30.02,SW,225,11.5,11.5,72,0.00,CLR,,0.00,WeatherDisplay:10.37,2013-02-02 03:29:00,
2013-02-01 21:34:00,20.7,13.1,30.01,South,180,9.2,9.5,72,0.00,CLR,,0.00,WeatherDisplay:10.37,2013-02-02 03:34:00,
2013-02-01 21:39:00,20.8,13.2,30.02,WSW,248,10.4,10.4,72,0.00,CLR,,0.00,WeatherDisplay:10.37,2013-02-02 03:39:00,
2013-02-01 21:44:00,21.0,13.4,30.01,SW,225,9.2,9.2,72,0.00,CLR,,0.00,WeatherDisplay:10.37,2013-02-02 03:44:00,
2013-02-01 21:49:00,21.4,13.8,30.01,SW,225,10.4,10.7,72,0.00,CLR,,0.00,WeatherDisplay:10.37,2013-02-02 03:49:00,
2013-02-01 21:54:00,21.6,13.9,30.01,SW,225,10.4,10.7,72,0.00,CLR,,0.00,WeatherDisplay:10.37,2013-02-02 03:54:00,
2013-02-01 21:59:00,21.7,14.1,30.01,WSW,248,9.2,9.5,72,0.00,CLR,,0.00,WeatherDisplay:10.37,2013-02-02 03:59:00,
2013-02-01 22:04:00,21.9,14.3,30.01,SW,225,11.9,12.7,72,0.00,CLR,,0.00,WeatherDisplay:10.37,2013-02-02 04:04:00,
2013-02-01 22:09:00,22.1,14.4,30.01,SW,225,9.2,9.2,72,0.00,CLR,,0.00,WeatherDisplay:10.37,2013-02-02 04:09:00,
2013-02-01 22:14:00,22.3,14.6,30.00,WSW,248,9.2,9.5,72,0.00,CLR,,0.00,WeatherDisplay:10.37,2013-02-02 04:14:00,
2013-02-01 22:19:00,22.5,14.8,30.00,WSW,248,13.8,14.8,72,0.00,CLR,,0.00,WeatherDisplay:10.37,2013-02-02 04:19:00,
2013-02-01 22:24:00,22.5,14.8,30.00,SW,225,8.1,8.1,72,0.00,CLR,,0.00,WeatherDisplay:10.37,2013-02-02 04:24:00,
2013-02-01 22:29:00,22.6,15.0,29.99,WSW,248,16.1,16.8,72,0.00,CLR,,0.00,WeatherDisplay:10.37,2013-02-02 04:29:00,
2013-02-01 22:34:00,22.6,15.0,30.00,WSW,248,12.2,12.5,72,0.00,CLR,,0.00,WeatherDisplay:10.37,2013-02-02 04:34:00,
2013-02-01 22:39:00,22.8,15.1,29.99,SW,225,10.8,10.8,72,0.00,CLR,,0.00,WeatherDisplay:10.37,2013-02-02 04:39:00,
2013-02-01 22:44:00,22.8,15.1,29.99,SSW,202,12.7,13.6,72,0.00,CLR,,0.00,WeatherDisplay:10.37,2013-02-02 04:44:00,
2013-02-01 22:49:00,23.0,15.3,29.99,SW,225,10.4,11.3,72,0.00,CLR,,0.00,WeatherDisplay:10.37,2013-02-02 04:49:00,
2013-02-01 22:54:00,23.2,15.5,29.99,SW,225,13.8,15.2,72,0.00,CLR,,0.00,WeatherDisplay:10.37,2013-02-02 04:54:00,
2013-02-01 22:59:00,23.2,15.5,29.99,SW,225,15.0,15.6,72,0.00,CLR,,0.00,WeatherDisplay:10.37,2013-02-02 04:59:00,
2013-02-01 23:00:00,23.2,15.5,29.99,WSW,248,15.0,15.5,72,0.00,CLR,,0.00,WeatherDisplay:10.37,2013-02-02 05:00:00,
2013-02-01 23:01:00,23.2,15.5,29.99,WSW,248,15.0,15.0,72,0.00,CLR,,0.00,WeatherDisplay:10.37,2013-02-02 05:01:00,
2013-02-01 23:06:00,23.2,15.5,29.99,WSW,248,11.9,11.9,72,0.00,CLR,,0.00,WeatherDisplay:10.37,2013-02-02 05:06:00,
2013-02-01 23:11:00,23.2,15.5,29.99,WSW,248,11.5,11.5,72,0.00,CLR,,0.00,WeatherDisplay:10.37,2013-02-02 05:11:00,
2013-02-01 23:16:00,23.2,15.5,30.00,WSW,248,10.4,10.7,72,0.00,CLR,,0.00,WeatherDisplay:10.37,2013-02-02 05:16:00,
2013-02-01 23:21:00,23.2,15.2,29.99,SW,225,12.2,12.2,71,0.00,CLR,,0.00,WeatherDisplay:10.37,2013-02-02 05:21:00,
2013-02-01 23:26:00,23.2,15.2,30.00,WSW,248,11.9,12.7,71,0.00,CLR,,0.00,WeatherDisplay:10.37,2013-02-02 05:26:00,
2013-02-01 23:31:00,23.2,15.2,29.99,WSW,248,11.6,12.4,71,0.00,CLR,,0.00,WeatherDisplay:10.37,2013-02-02 05:31:00,
2013-02-01 23:36:00,23.2,15.2,29.99,WSW,248,10.5,10.5,71,0.00,CLR,,0.00,WeatherDisplay:10.37,2013-02-02 05:36:00,
2013-02-01 23:41:00,23.2,15.2,29.99,SW,225,10.4,10.4,71,0.00,CLR,,0.00,WeatherDisplay:10.37,2013-02-02 05:41:00,
2013-02-01 23:46:00,23.2,15.2,29.99,WSW,248,11.6,12.4,71,0.00,CLR,,0.00,WeatherDisplay:10.37,2013-02-02 05:46:00,
2013-02-01 23:51:00,22.8,14.8,29.99,WSW,248,10.4,11.2,71,0.00,CLR,,0.00,WeatherDisplay:10.37,2013-02-02 05:51:00,
2013-02-01 23:56:00,22.8,14.8,29.99,SW,225,9.2,9.2,71,0.00,CLR,,0.00,WeatherDisplay:10.37,2013-02-02 05:56:00,